#timestamp,LO_Frequency,Hit 
1501448415.8,286047026.4,N
1501448435.6,286047020.8,N
1501448455.5,286047020.9,N
1501448475.3,286047020.7,N
1501448495.1,286047022.8,N
1501448515.8,286047025.2,N
1501448535.7,286047023.4,N
1501448555.5,286047022.7,N
1501448575.3,286047019.3,N
1501448595.2,286047021.2,N
1501448615.9,286047018.9,N
1501448635.7,286047019.9,N
1501448655.6,286047019.1,N
1501448675.4,286047019.8,N
1501448695.2,286047020.3,N
1501448715.1,286047020.0,N
1501448716.0,286047020.0,N
1501448735.8,286047020.1,N
1501448755.6,286047020.0,N
1501448775.5,286047015.7,N
1501448795.3,286047016.2,N
1501448815.1,286047018.3,N
1501448835.8,286047017.1,N
1501448855.7,286047012.9,N
1501448875.5,286047015.4,N
1501448895.3,286047018.2,N
1501448915.2,286047016.9,N
1501448935.0,286047012.6,N
1501448935.9,286047012.6,N
1501448955.7,286047014.5,N
1501448975.6,286047014.2,N
1501448995.4,286047014.8,N
1501449015.2,286047012.8,N
1501449035.1,286047013.8,N
1501449036.0,286047013.8,N
1501449055.8,286047011.9,N
1501449075.6,286047009.5,N
1501449095.5,286047009.9,N
1501449115.3,286047010.4,N
1501449135.1,286047011.9,N
1501449155.9,286047010.4,N
1501449175.7,286047010.4,N
1501449195.5,286047010.8,N
1501449215.3,286047008.1,N
1501449235.2,286047009.6,N
1501449255.0,286047008.5,N
1501449255.9,286047008.5,N
1501449275.7,286047008.2,N
1501449295.6,286047008.5,N
1501449315.4,286047008.3,N
1501449335.2,286047008.0,N
1501449355.1,286047007.8,N
1501449356.0,286047007.8,N
1501449375.8,286047008.0,N
1501449395.6,286047007.9,N
1501449415.5,286047008.2,N
1501449435.3,286047007.7,N
1501449455.1,286047010.4,N
1501449475.9,286047008.7,N
1501449495.7,286047008.5,N
1501449515.5,286047008.2,N
1501449535.4,286047010.0,N
1501449555.2,286047010.1,N
1501449575.0,286047010.5,N
1501449575.9,286047010.5,N
1501449595.7,286047007.7,N
1501449615.6,286047010.8,N
1501449635.4,286047008.5,N
1501449655.2,286047007.8,N
1501449675.1,286047008.0,N
1501449676.0,286047008.0,N
1501449695.8,286047005.7,N
1501449715.6,286047005.1,N
1501449735.5,286047004.5,N
1501449755.3,286047005.6,N
1501449775.1,286047007.1,N
1501449795.9,286047008.9,N
1501449815.7,286047008.6,N
1501449835.5,286047010.8,N
1501449855.4,286047010.4,N
1501449875.2,286047009.0,N
1501449895.0,286047007.9,N
1501449895.9,286047007.9,N
1501449915.8,286047008.4,N
1501449935.6,286047009.2,N
1501449955.4,286047006.1,N
1501449975.3,286047007.6,N
1501449995.1,286047004.7,N
1501449996.0,286047004.7,N
1501450015.8,286047006.6,N
1501450035.7,286047009.1,N
1501450055.5,286047006.7,N
1501450075.3,286047008.9,N
1501450095.1,286047010.7,N
1501450115.9,286047009.9,N
1501450135.7,286047008.3,N
1501450155.5,286047004.5,N
1501450175.4,286047007.0,N
1501450195.2,286047008.5,N
1501450215.0,286047008.7,N
1501450215.9,286047008.7,N
1501450235.8,286047009.2,N
1501450255.6,286047011.8,N
1501450275.4,286047010.0,N
1501450295.3,286047009.7,N
1501450315.1,286047011.3,N
1501450316.0,286047011.3,N
1501450335.8,286047013.7,N
1501450355.7,286047015.5,N
1501450375.5,286047012.9,N
1501450395.3,286047016.4,N
1501450415.2,286047014.6,N
1501450435.9,286047015.2,N
1501450455.7,286047011.0,N
1501450475.5,286047012.1,N
1501450495.4,286047013.1,N
1501450515.2,286047011.3,N
1501450535.0,286047015.5,N
1501450535.9,286047015.5,N
1501450555.8,286047013.9,N
1501450575.6,286047013.7,N
1501450595.4,286047014.3,N
1501450615.3,286047014.8,N
1501450635.1,286047012.6,N
1501450636.0,286047012.6,N
1501450655.8,286047015.6,N
1501450675.7,286047012.7,N
1501450695.5,286047013.4,N
1501450715.3,286047009.5,N
1501450735.2,286047012.0,N
1501450755.9,286047013.9,N
1501450775.7,286047013.2,N
1501450795.5,286047013.6,N
1501450815.4,286047011.2,N
1501450835.2,286047010.8,N
1501450855.0,286047007.9,N
1501450856.0,286047007.9,N
1501450875.8,286047009.3,N
1501450895.6,286047010.1,N
1501450915.4,286047009.9,N
1501450935.3,286047009.9,N
1501450955.1,286047007.8,N
1501450975.8,286047006.1,N
1501450995.7,286047006.5,N
1501451015.5,286047008.9,N
1501451035.3,286047010.0,N
1501451055.2,286047013.1,N
1501451075.9,286047012.0,N
1501451095.7,286047012.6,N
1501451115.6,286047013.0,N
1501451135.4,286047017.1,N
1501451155.2,286047014.2,N
1501451175.1,286047017.0,N
1501451176.0,286047017.0,N
1501451195.8,286047012.6,N
1501451215.6,286047012.4,N
1501451235.5,286047013.8,N
1501451255.3,286047012.9,N
1501451275.1,286047014.7,N
1501451295.9,286047012.8,N
1501451315.7,286047013.9,N
1501451335.5,286047013.9,N
1501451355.3,286047012.7,N
1501451375.2,286047012.8,N
1501451395.0,286047014.2,N
1501451395.9,286047014.2,N
1501451415.7,286047014.5,N
1501451435.6,286047012.7,N
1501451455.4,286047013.8,N
1501451475.2,286047013.2,N
1501451495.1,286047014.9,N
1501451496.0,286047014.9,N
1501451515.8,286047011.5,N
1501451535.6,286047012.8,N
1501451555.5,286047014.6,N
1501451575.3,286047017.0,N
1501451595.1,286047012.5,N
1501451615.9,286047010.9,N
1501451635.7,286047012.1,N
1501451655.5,286047012.1,N
1501451675.4,286047013.6,N
1501451695.2,286047014.0,N
1501451715.0,286047012.6,N
1501451715.9,286047012.6,N
1501451735.7,286047013.2,N
1501451755.6,286047011.5,N
1501451775.4,286047015.0,N
1501451795.2,286047016.3,N
1501451815.1,286047014.9,N
1501451816.0,286047014.9,N
1501451835.8,286047014.9,N
1501451855.6,286047018.4,N
1501451875.5,286047014.3,N
1501451895.3,286047015.3,N
1501451915.1,286047013.1,N
1501451935.9,286047012.9,N
1501451955.7,286047014.1,N
1501451975.5,286047018.2,N
1501451995.4,286047020.3,N
